Location: Blairvadach
(56.2780°N, 6.9720°W)
Time: 03:02:06
(UTC+00:00)

Envisat - Pass Details

Date: 19 November 2019
Orbit: 764 x 766 km, 98.1° (Epoch: 12 December)

Event Time Altitude Azimuth Distance (km) Brightness Sun altitude
Rises 05:56:36 0° 25° (NNE) 3,247 6.5 -18.3°
Reaches altitude 10° 05:59:50 10° 46° (NE) 2,314 6.0 -17.9°
Maximum altitude 06:02:58 16° 84° (E) 1,911 6.1 -17.4°
Drops below altitude 10° 06:06:06 10° 123° (ESE) 2,303 6.5 -17.0°
Sets 06:09:17 0° 144° (SE) 3,223 7.0 -16.6°
